Location: Sternwarte auf dem Internationalen Platz Vogelsang IP
(50.5721°N, 6.4398°E)
Time: 19:02:35
(UTC+01:00)

A-11 Canister half - Pass Details

Date: 11 December 2025
Orbit: 1511 x 1688 km, 47.2° (Epoch: 19 January)

Event Time Altitude Azimuth Distance (km) Brightness Sun altitude
Rises 00:42:27 0° 283° (WNW) 4,850 - -62.3°
Reaches altitude 10° 00:48:44 10° 254° (WSW) 3,899 - -62.1°
Maximum altitude 00:51:27 11° 238° (WSW) 3,798 - -62.0°
Drops below altitude 10° 00:54:12 10° 221° (SW) 3,922 - -61.9°
Sets 01:00:39 0° 192° (SSW) 4,925 - -61.7°
